Location: Arbon
(43.0005°N, 0.7472°E)
Time: 21:54:04
(UTC+00:00)

Altair - Pass Details

Date: 26 November 2020
Orbit: 1501 x 1682 km, 47.2° (Epoch: 26 January)

Event Time Altitude Azimuth Distance (km) Brightness Sun altitude
Rises 23:30:47 0° 271° (W) 4,669 - -68.0°
Reaches altitude 10° 23:33:52 10° 274° (W) 3,674 - -68.0°
Maximum altitude 23:43:03 68° 357° (N) 1,597 - -68.2°
Drops below altitude 10° 23:52:14 10° 80° (E) 3,668 - -68.1°
Sets 23:55:19 0° 83° (E) 4,662 - -68.1°
